Cloud_Cover
0 0 0 0 0 0 0 0 0 0 0 0 0 0 0 0 0 0 0 0 0 0 0 0 0 0 0 0 0 0 0 0 0 0 0 0 0 0 0 0 0 0 0 0 0 0 0 8 12 12 12 12 12 12 12 12 12 12 8 8 8 8 8 8 0 0 0 0 0 0 0 0 8 8 20 24 32 32 64 76 68 68 68 68 76 76 80 88 92 92 92 92 92 92 92 92 92 92 92 92 92 92 92
0 0 0 0 0 0 0 0 0 0 0 0 0 0 0 0 0 0 0 0 0 0 0 0 0 0 0 0 0 0 0 0 0 0 0 0 0 0 0 0 0 0 0 0 0 0 0 0 0 0 8 12 12 12 12 12 12 20 12 8 0 8 8 0 0 8 0 0 0 0 0 0 0 0 0 0 8 12 32 48 64 64 68 68 76 76 76 80 92 92 92 92 92 92 92 92 92 92 92 92 92 92 92
0 0 0 0 0 0 0 0 0 0 0 0 0 0 0 0 0 0 0 0 0 0 0 0 0 0 0 0 0 0 0 0 0 0 0 0 0 0 0 0 0 0 0 0 0 0 0 0 0 0 0 8 12 12 12 12 12 12 12 12 12 0 0 0 8 8 8 8 8 0 0 0 0 0 0 0 0 0 12 32 44 64 64 68 68 68 76 76 80 88 80 88 92 92 92 92 92 92 92 92 92 92 92
0 0 0 0 0 0 0 0 0 0 0 0 0 0 0 0 0 0 0 0 0 0 0 0 0 0 0 0 0 0 0 0 0 0 0 0 0 0 0 0 0 0 0 0 0 0 0 0 0 0 0 0 0 12 12 12 12 12 12 12 12 8 0 0 0 0 8 8 8 8 8 0 0 0 0 0 0 0 0 12 32 48 56 64 64 68 68 76 76 76 76 80 88 92 92 92 92 92 92 92 92 92 92
0 0 0 0 0 0 0 0 0 0 0 0 0 0 0 0 0 0 0 0 0 0 0 0 0 0 0 0 0 0 0 0 0 0 0 0 0 0 0 0 0 0 0 0 0 0 0 0 0 0 0 0 0 0 0 8 12 12 12 12 12 8 12 8 0 0 0 0 8 8 0 0 8 8 8 0 0 0 0 0 8 20 44 56 64 64 68 68 76 76 76 76 80 92 92 92 92 92 92 92 92 92 92
0 0 0 0 0 0 0 0 0 0 0 0 0 0 0 0 0 0 0 0 0 0 0 0 0 0 0 0 0 0 0 0 0 0 0 0 0 0 0 0 0 0 0 0 0 0 0 0 0 0 0 0 0 0 0 0 0 12 12 12 12 12 12 8 0 0 0 0 0 0 0 8 8 8 8 8 8 0 0 0 0 8 20 36 56 64 64 68 68 68 76 76 76 80 88 92 92 92 92 92 88 88 92
0 0 0 0 0 0 0 0 0 0 0 0 0 0 0 0 0 0 0 0 0 0 0 0 0 0 0 0 0 0 0 0 0 0 0 0 0 0 0 0 0 0 0 0 0 0 0 0 0 0 0 0 0 0 0 0 0 0 8 12 12 12 12 12 12 12 0 0 0 0 0 0 0 12 12 8 8 8 8 8 0 0 12 24 44 48 56 68 68 68 68 76 76 76 76 80 80 88 92 88 88 88 88
0 0 0 0 0 0 0 0 0 0 8 8 8 8 8 8 8 8 8 0 0 0 0 0 0 0 0 0 0 0 0 0 0 0 0 0 0 0 0 0 0 0 0 0 0 0 0 0 0 0 0 0 0 0 0 0 0 0 0 0 0 0 8 12 12 12 0 0 0 0 0 0 0 0 0 8 8 8 8 8 8 8 8 8 20 48 48 48 48 64 68 68 68 76 76 76 76 76 80 80 80 88 88
0 0 0 0 0 0 8 8 8 8 8 8 8 8 8 8 8 8 8 8 8 8 8 0 0 0 0 0 0 0 0 0 0 0 0 0 0 0 0 0 0 0 0 0 0 0 0 0 0 0 0 0 0 0 0 0 0 0 0 0 0 0 0 0 8 12 8 8 0 0 0 0 0 0 0 0 0 8 8 8 8 8 8 8 8 8 36 44 36 48 56 68 68 68 68 76 76 76 76 76 76 80 88
0 0 0 0 0 0 0 0 8 8 8 8 8 8 8 8 8 8 8 8 8 8 8 8 8 8 0 0 0 0 0 0 0 0 0 0 0 0 0 0 0 0 0 0 0 0 0 0 0 0 0 0 0 0 0 0 0 0 0 0 0 0 0 0 0 0 0 0 0 0 0 0 0 0 0 0 0 8 0 0 8 8 8 8 8 20 36 44 36 24 44 56 64 68 68 68 68 76 76 76 76 80 80
0 0 0 0 0 0 0 0 0 8 8 8 8 8 8 8 8 8 8 8 8 8 8 8 8 8 8 8 8 8 8 8 8 0 0 0 0 0 0 0 0 0 0 0 0 0 0 0 0 0 0 0 0 0 0 0 0 0 0 0 0 0 0 0 0 0 0 0 0 0 0 0 0 0 0 0 0 0 0 0 0 0 8 8 8 8 20 32 36 36 32 44 64 64 68 68 68 76 76 76 68 68 76
0 0 0 0 0 0 0 0 0 0 0 0 8 8 8 8 8 8 8 8 8 8 8 8 8 8 8 8 8 8 8 8 8 8 8 8 8 0 0 0 0 0 0 0 0 0 0 0 0 0 0 0 0 0 0 0 0 0 0 0 0 0 0 0 0 0 0 0 0 0 0 0 0 0 0 0 0 0 0 0 0 0 0 8 8 0 8 12 24 44 36 44 56 68 64 64 68 68 68 68 68 76 76
0 0 0 0 0 0 0 0 0 0 0 0 0 0 0 0 0 8 8 8 8 8 8 8 8 8 8 8 8 8 8 8 8 8 8 8 8 8 8 0 0 0 0 0 0 0 0 0 0 0 0 0 0 0 0 0 0 0 0 0 0 0 0 0 0 0 0 0 0 0 0 0 0 0 0 0 0 0 0 0 0 0 0 0 0 0 0 12 24 36 32 32 44 64 64 64 64 64 68 68 68 68 76
8 0 0 0 0 0 0 0 0 0 0 0 0 0 0 0 0 0 0 0 0 8 8 8 8 8 8 8 8 8 8 8 8 8 8 8 8 8 8 8 0 0 0 0 0 0 0 0 0 0 0 0 0 0 0 0 0 0 0 0 0 0 8 8 8 8 8 8 8 0 0 0 0 0 0 0 0 0 0 0 0 0 0 0 0 0 0 0 12 32 36 36 36 44 56 56 56 56 64 68 68 68 76
8 0 0 0 0 0 0 0 0 0 0 0 0 0 0 0 0 0 0 0 0 0 0 0 8 8 8 8 8 8 8 8 8 8 8 8 8 8 8 0 0 0 0 0 0 0 0 0 0 0 0 0 0 0 0 0 0 0 0 0 0 8 36 44 48 44 44 44 44 36 32 32 32 24 12 8 0 0 0 0 0 0 0 0 0 0 0 0 0 12 32 36 32 32 44 48 48 56 56 64 64 64 68
8 8 0 0 0 0 0 0 0 0 0 0 0 0 0 0 0 0 0 0 0 0 0 0 0 0 0 0 0 0 0 0 0 0 0 0 0 0 0 0 0 0 0 0 0 0 0 0 0 0 0 0 0 0 0 0 0 0 0 8 20 36 68 80 80 80 80 80 80 80 76 76 80 80 64 44 32 12 0 0 0 0 0 0 0 0 0 0 0 8 20 32 36 32 32 36 36 44 56 56 56 64 64
12 12 8 8 0 0 0 0 0 0 0 0 0 0 0 0 0 0 0 0 0 0 0 0 0 0 0 0 0 0 0 0 0 0 0 0 0 0 0 0 0 0 0 0 0 0 0 0 0 0 0 0 0 0 0 0 0 0 0 12 32 64 76 80 80 80 80 80 80 80 80 80 80 80 80 80 68 48 20 8 0 0 0 0 0 0 0 0 0 0 8 20 24 36 32 32 32 36 44 44 48 64 56
8 12 12 8 8 0 0 0 0 0 0 0 0 0 0 0 0 0 0 0 0 0 0 0 0 0 0 0 0 0 0 0 0 0 0 0 0 0 0 0 0 0 0 0 0 0 0 0 0 0 0 0 0 0 0 0 0 0 0 8 32 64 76 80 80 80 80 80 80 80 80 80 80 80 80 76 76 76 44 20 0 0 0 0 0 0 0 0 0 0 8 12 12 24 24 24 32 32 36 44 48 56 56
8 8 8 12 8 8 8 8 0 0 0 0 0 0 0 0 0 0 0 0 0 0 0 0 8 0 0 0 0 0 0 0 0 0 0 0 0 0 0 0 0 0 0 0 0 0 0 0 0 0 0 0 0 0 0 8 12 12 8 0 12 32 48 68 80 80 80 80 80 80 80 80 80 80 76 76 76 76 56 24 0 0 0 0 0 0 0 0 0 0 0 8 12 12 12 12 20 32 32 36 44 48 48
0 8 8 8 8 8 8 8 0 0 0 0 0 0 0 0 0 0 0 0 0 0 8 12 12 8 8 0 0 0 0 0 0 0 0 0 0 0 0 0 0 0 0 0 0 0 0 0 0 0 0 0 0 8 12 20 24 32 24 12 8 8 12 24 36 44 44 48 56 80 80 80 80 76 76 76 76 68 48 24 8 0 0 0 0 0 0 0 0 0 0 0 8 8 8 8 12 20 24 32 36 44 44
8 8 8 8 8 8 0 0 8 0 0 0 0 0 0 0 0 0 0 0 0 8 12 12 12 12 12 8 0 0 0 0 0 0 0 0 0 0 0 0 0 0 8 8 8 0 0 0 8 8 12 12 20 20 32 32 32 32 32 24 20 0 0 0 0 0 8 8 12 32 32 32 36 44 44 36 32 32 20 20 12 12 8 0 0 0 0 0 0 0 0 0 0 0 0 0 8 8 24 32 32 36 44
8 8 8 8 8 8 0 0 0 8 0 0 0 0 0 0 0 0 0 0 0 12 12 12 12 12 12 12 8 8 0 0 0 0 0 0 0 0 0 0 8 12 20 20 20 20 12 12 12 12 12 20 20 32 36 36 32 32 32 32 24 0 0 0 0 0 0 0 0 0 0 0 8 24 32 32 20 12 20 20 12 8 0 0 0 0 0 0 0 0 0 0 0 0 0 0 0 0 8 20 32 32 36
8 8 12 12 8 8 0 0 0 8 0 0 0 0 0 0 0 8 8 8 8 20 20 20 20 12 12 12 12 12 8 0 0 0 0 0 0 0 8 8 12 20 20 12 12 20 12 12 20 20 20 20 24 36 36 36 32 32 32 32 24 0 0 0 0 0 0 0 0 0 0 0 12 24 36 48 44 24 20 12 8 0 0 0 0 0 0 0 0 0 0 0 0 0 0 0 0 0 0 12 32 32 32
8 8 12 8 8 0 0 0 8 8 8 8 8 0 0 0 0 8 12 12 20 24 20 20 20 12 12 12 12 8 12 8 0 0 0 0 0 8 12 20 24 24 20 20 12 8 12 12 20 24 24 24 24 44 44 36 32 32 32 32 24 0 0 0 0 0 0 0 0 0 0 0 8 12 20 20 12 8 8 0 0 0 0 0 0 0 0 0 0 0 0 0 0 0 0 0 0 0 0 0 12 36 32
8 8 8 8 8 8 8 8 8 8 8 8 8 8 8 8 8 8 20 20 20 24 20 20 20 20 20 12 12 8 12 8 8 0 0 0 0 8 12 20 32 32 24 20 12 8 8 12 20 20 24 24 32 44 44 36 32 32 32 32 24 0 0 0 0 0 0 0 0 0 0 0 0 0 0 0 0 0 0 0 0 0 0 0 0 0 0 0 0 0 0 0 0 0 0 0 0 0 0 0 0 8 20
8 0 8 8 8 8 8 8 8 8 8 8 8 8 8 8 8 12 20 20 20 24 20 20 20 20 20 12 12 8 12 8 0 0 0 8 8 12 20 24 36 36 32 24 12 8 12 12 20 20 24 32 32 32 36 36 32 32 32 24 12 0 0 0 0 0 0 0 0 0 0 0 0 0 0 0 0 0 0 0 0 0 0 0 0 0 0 0 0 0 0 0 0 0 0 0 0 8 8 0 0 0 0
8 0 8 8 8 8 8 8 8 8 8 8 8 8 12 20 20 20 20 24 24 24 20 20 24 24 20 20 20 20 20 12 12 20 12 20 20 24 32 36 44 44 32 24 20 8 12 20 20 24 32 32 32 32 32 32 32 32 32 12 0 0 0 0 0 0 0 0 0 0 0 0 0 0 0 0 0 0 0 0 0 0 0 0 0 0 0 0 0 0 0 0 0 0 0 0 8 20 24 24 12 0 0
8 8 8 8 8 8 8 8 8 8 8 8 12 20 20 20 20 20 20 24 24 20 24 24 24 24 32 32 32 32 24 24 32 44 48 44 44 48 64 56 48 36 32 24 12 20 24 24 32 24 32 32 32 32 32 32 32 32 32 12 0 0 0 0 0 0 0 0 0 0 0 0 0 0 0 0 0 0 0 0 0 0 0 0 0 0 0 0 0 0 0 0 0 0 0 8 20 32 32 36 36 24 24
8 8 8 8 8 8 8 8 8 8 8 8 12 20 24 20 20 20 20 24 24 24 32 32 36 36 36 36 36 32 36 44 64 68 80 80 88 88 68 48 44 36 32 20 20 32 32 32 32 24 32 32 32 32 32 32 32 32 24 8 0 0 0 0 0 0 0 0 0 0 0 0 0 0 0 0 0 0 0 0 0 0 0 0 0 0 0 0 0 0 0 0 0 0 0 8 24 36 36 36 44 36 32
8 8 8 8 8 8 8 8 8 8 8 12 20 20 20 20 24 24 24 32 36 36 36 44 44 44 48 44 44 44 48 68 88 88 88 88 80 68 56 44 36 32 32 20 20 24 32 24 24 32 32 32 32 32 32 36 36 32 8 0 0 0 0 0 0 0 0 0 0 0 0 0 0 0 0 0 0 0 0 0 0 0 0 0 0 0 0 0 0 0 0 0 0 0 0 12 32 48 44 44 44 56 56
8 8 8 8 8 8 8 8 8 8 8 12 20 20 20 20 24 32 36 44 44 44 48 48 48 56 56 56 68 88 88 88 88 80 76 68 64 56 44 32 32 32 24 24 24 24 24 32 32 32 32 32 36 32 36 44 36 32 12 0 8 12 12 8 0 0 0 0 0 0 0 0 0 0 0 0 0 0 0 0 0 0 0 0 0 0 0 0 0 0 0 0 0 0 0 8 32 80 80 76 68 80 80
8 8 8 8 8 8 8 8 8 8 8 12 12 20 20 20 24 44 44 48 56 48 48 48 56 64 68 80 88 88 88 88 80 68 64 56 48 48 36 36 32 24 24 20 20 24 32 32 36 44 44 36 36 32 36 44 36 32 20 12 12 20 12 0 0 0 0 0 0 0 0 0 0 0 0 0 0 0 0 0 0 0 0 0 0 0 0 0 0 0 0 0 0 0 0 0 12 64 76 80 80 80 80
8 8 8 8 8 8 8 8 8 8 12 12 12 20 24 24 24 44 44 48 56 56 56 56 64 68 80 88 88 88 88 80 76 64 56 48 44 44 36 36 36 32 24 24 24 36 36 44 44 32 32 32 32 32 36 36 36 44 20 20 20 12 0 0 0 0 0 0 0 0 0 0 0 0 0 0 0 0 0 0 0 0 0 0 0 0 0 0 0 0 0 0 0 0 0 0 0 0 56 76 76 80 80
8 8 8 8 8 8 8 8 8 8 12 12 20 12 20 24 32 36 44 48 48 48 48 64 76 80 88 88 88 80 68 56 56 48 48 48 48 44 36 36 36 36 32 32 36 48 56 48 44 32 32 32 32 32 36 44 44 48 32 20 12 8 0 0 0 0 0 0 0 0 0 0 0 0 0 0 0 0 0 0 0 0 0 0 0 0 0 0 0 0 0 0 0 0 0 0 0 0 20 32 44 76 76
8 8 8 8 8 8 8 8 8 8 12 12 8 8 8 20 36 48 48 48 48 56 64 76 80 80 80 68 56 48 44 44 48 48 48 48 44 36 36 36 36 36 36 32 36 48 48 44 32 32 32 32 32 32 36 44 44 36 24 20 8 0 0 0 0 0 0 0 0 0 0 0 0 0 0 0 0 0 0 0 0 0 0 0 0 0 0 0 0 0 0 0 0 0 0 0 0 0 0 0 8 24 64
8 8 8 8 8 8 8 8 8 8 8 8 8 12 20 24 36 44 48 48 56 56 64 64 64 48 44 36 36 44 44 48 48 48 48 44 36 36 32 32 36 36 36 36 36 48 48 44 32 32 36 36 44 48 56 48 36 32 24 12 0 0 0 0 0 0 0 0 0 0 0 0 0 0 0 0 0 0 0 0 0 0 0 0 0 0 0 0 0 0 0 0 0 0 0 0 0 0 0 0 0 0 24
8 8 8 8 8 8 8 8 8 8 8 8 12 24 24 32 36 44 48 48 48 36 44 36 32 24 24 32 36 44 48 48 48 44 44 44 36 32 32 32 36 32 36 36 36 48 36 32 32 36 36 44 56 68 64 44 32 44 32 12 0 0 0 0 0 0 0 0 0 0 0 0 0 0 0 0 0 0 0 0 0 0 0 0 0 0 0 0 0 0 0 0 0 0 0 0 0 0 0 0 0 0 8
8 8 8 8 8 8 8 8 8 8 8 8 12 32 24 32 36 36 44 44 44 32 24 20 20 20 24 32 36 44 48 44 44 44 44 36 32 32 32 32 32 32 36 36 36 36 36 36 36 36 36 48 68 80 48 36 36 32 20 8 0 0 0 0 0 0 0 0 0 0 0 0 0 0 0 0 0 0 0 0 0 0 0 0 0 0 0 0 0 0 0 0 0 0 0 0 0 0 0 0 0 0 0
8 8 8 8 8 8 8 8 8 8 8 8 12 20 24 32 32 32 36 44 48 48 44 36 32 24 32 36 36 36 44 48 48 48 48 36 32 24 32 32 32 36 36 44 36 36 44 44 44 36 36 56 68 56 32 24 24 12 0 0 0 0 0 0 0 0 0 0 0 0 0 0 0 0 0 0 0 0 0 0 0 0 0 0 0 0 0 0 0 0 0 0 0 0 0 0 0 0 0 0 0 0 0
8 8 8 8 8 8 8 8 8 8 12 20 20 24 32 36 44 48 56 56 64 56 56 48 48 44 44 44 36 36 44 48 56 56 48 36 24 24 32 36 44 44 48 44 44 44 48 48 44 36 44 56 56 32 20 12 8 0 0 0 0 0 0 0 0 0 0 0 0 0 0 0 0 0 0 0 0 0 0 0 0 0 0 0 0 0 0 0 8 12 8 8 0 0 0 0 0 0 0 0 0 0 0
8 8 8 8 8 8 8 8 8 12 32 32 32 44 48 56 64 68 68 68 64 64 56 56 64 64 56 48 48 56 64 64 64 56 44 32 24 32 36 44 48 48 48 44 44 44 48 44 36 36 44 44 36 12 8 0 0 0 0 0 0 0 0 0 0 0 0 0 0 0 0 0 0 0 0 0 0 0 0 0 0 0 0 0 0 0 0 0 12 20 24 24 20 8 0 8 8 8 0 0 0 0 0
8 8 8 8 8 8 8 12 20 32 44 44 48 56 64 68 68 68 68 68 68 68 68 76 80 88 68 64 64 68 68 64 56 48 32 24 32 36 44 48 48 48 48 44 44 48 44 44 36 36 44 36 20 8 0 0 0 0 0 0 0 0 0 0 0 0 0 0 0 0 0 0 0 0 0 0 0 0 0 8 12 12 8 8 0 0 8 12 20 24 32 44 44 32 20 24 32 24 20 12 0 0 0
8 8 8 8 8 8 12 24 32 36 44 48 56 64 64 68 68 68 76 76 80 88 88 88 88 80 68 64 68 68 56 48 44 44 32 32 36 44 44 48 48 44 44 44 48 44 44 36 32 36 44 32 12 0 0 0 0 0 0 0 0 0 0 0 0 0 0 0 0 0 0 0 0 0 0 0 0 0 8 32 48 48 48 44 44 44 48 44 36 36 44 48 56 48 44 44 44 36 36 24 20 8 0
20 20 12 12 12 20 24 32 36 44 48 48 56 64 64 68 76 80 88 88 88 88 88 88 80 68 56 56 56 56 48 44 44 36 36 36 44 44 44 44 44 44 44 44 44 44 36 24 24 44 44 24 8 0 0 0 0 0 0 0 0 0 0 0 0 0 0 0 0 0 0 0 0 0 0 0 0 20 44 64 76 80 80 80 80 76 76 76 68 68 64 64 56 48 44 44 44 36 36 32 24 20 12
24 32 24 24 24 24 32 36 44 48 48 56 56 56 68 76 88 88 88 88 88 88 88 80 68 56 48 48 48 56 48 44 36 36 44 44 44 36 44 44 44 32 44 44 44 36 24 24 36 44 36 20 0 0 0 0 0 0 0 0 0 0 0 0 0 0 0 0 0 0 0 0 0 0 0 8 32 56 76 76 80 80 80 80 80 76 80 80 76 76 76 76 68 48 48 44 44 32 32 32 24 24 20
32 32 32 32 32 36 36 44 48 56 56 64 64 68 80 88 88 88 88 88 88 88 80 68 56 56 56 48 48 48 44 44 44 44 44 44 44 36 36 32 32 32 36 36 32 20 12 24 36 36 32 12 0 0 0 0 0 0 0 0 0 0 0 0 0 0 0 0 0 0 0 0 0 0 12 36 64 76 76 76 80 80 80 80 80 80 80 80 80 80 80 76 76 68 64 56 48 44 36 36 36 36 24
32 36 36 36 44 44 48 48 56 64 64 68 76 80 80 88 88 88 88 88 88 88 76 68 64 64 64 56 48 44 44 44 44 36 36 36 36 36 32 32 32 32 24 24 20 12 24 32 36 32 24 8 0 0 0 0 0 0 0 0 0 0 0 0 0 0 0 0 0 0 0 0 8 8 44 68 76 76 76 76 76 76 80 80 80 80 80 80 80 80 80 80 80 80 76 68 64 56 48 48 44 44 32
36 48 48 48 48 56 56 64 64 68 68 76 80 88 88 88 88 88 88 88 80 80 76 76 76 76 64 48 44 44 44 36 36 36 32 36 36 36 32 32 32 20 20 12 12 12 32 32 32 24 8 0 0 0 0 0 0 0 0 0 0 0 0 0 0 0 0 0 0 0 8 32 48 56 68 76 76 76 76 76 76 76 80 80 76 76 76 80 80 80 80 80 80 80 80 76 76 76 76 68 56 36 32
48 56 64 64 64 64 64 64 68 68 76 80 80 88 88 88 88 88 88 80 80 76 76 76 76 68 56 56 48 44 36 32 32 32 32 36 36 36 24 24 24 20 12 8 12 32 24 24 20 12 0 0 0 0 0 0 0 0 0 0 0 0 0 0 0 0 0 0 0 0 24 48 68 76 76 76 76 76 76 76 80 76 76 76 76 80 80 80 80 80 80 80 80 80 80 80 76 64 64 56 56 48 48
56 56 64 64 68 68 64 68 68 76 76 80 88 88 88 88 88 88 88 80 76 80 76 68 64 56 48 48 48 48 36 32 32 32 36 44 36 32 32 20 12 8 8 8 20 24 20 20 12 0 0 0 0 0 0 0 0 0 0 0 0 0 0 0 0 0 0 0 0 12 24 48 76 76 76 76 76 76 76 76 76 80 80 80 80 80 80 80 80 80 80 80 80 80 80 80 80 76 76 76 76 68 56
64 64 64 68 68 68 68 68 68 76 80 88 88 88 88 88 88 88 80 76 76 76 76 68 56 56 48 48 48 44 36 32 32 32 36 36 32 24 20 8 0 0 0 8 12 12 12 8 0 0 0 0 0 0 0 0 0 0 0 0 0 0 0 0 0 0 0 8 20 36 56 68 76 68 76 76 76 76 80 80 80 88 80 80 80 80 80 80 80 80 80 80 80 88 80 76 76 76 80 68 64 64 56
64 68 68 68 68 68 68 76 76 80 88 88 88 88 88 88 88 88 76 76 76 76 68 64 64 56 48 56 56 44 36 32 32 32 36 32 20 0 8 0 0 0 0 8 0 0 0 0 0 0 0 0 0 0 0 0 0 0 0 0 0 0 0 0 0 0 8 20 44 68 68 76 68 68 76 76 80 80 80 88 88 88 88 88 88 88 80 80 80 80 80 80 80 88 88 88 80 80 76 68 64 48 64
64 68 68 68 68 76 76 80 88 88 88 88 88 88 88 88 80 76 76 76 76 76 68 68 64 64 56 56 48 36 32 32 32 32 32 20 8 0 0 0 0 0 0 0 0 0 0 0 0 0 0 0 0 0 0 0 0 0 0 0 0 0 0 0 0 8 20 44 64 76 68 68 68 76 80 80 80 88 88 88 88 92 92 92 92 92 88 88 80 88 80 80 80 80 80 88 92 92 92 88 88 80 80
64 68 68 76 80 80 80 88 88 88 88 88 88 88 88 88 80 76 76 76 76 76 76 76 68 68 64 56 44 36 32 24 32 36 32 20 8 0 0 0 0 0 0 0 0 0 0 0 0 0 0 0 0 0 0 0 0 0 0 0 0 0 0 0 0 20 24 48 68 68 68 76 76 80 80 88 88 88 88 92 92 92 92 92 92 92 88 80 88 88 88 80 80 80 76 76 76 88 88 88 92 88 80
68 76 80 88 88 88 88 88 88 88 88 88 88 88 88 80 80 80 80 80 80 80 80 80 80 68 64 56 44 32 24 24 24 32 24 12 0 0 0 0 0 0 0 0 0 0 0 0 0 0 0 0 0 0 0 0 0 0 0 0 0 0 0 8 24 44 64 68 68 68 76 76 76 76 88 88 88 88 92 92 92 92 92 88 80 80 80 80 80 80 80 88 88 88 88 88 88 88 88 88 88 88 64
80 88 88 88 88 88 88 88 88 88 88 88 88 88 88 80 80 80 80 80 80 80 80 80 80 68 56 44 36 24 20 24 24 20 12 8 0 0 0 0 0 0 0 0 0 0 0 0 0 0 0 0 0 0 0 0 0 0 0 0 0 0 0 12 24 48 64 68 68 76 76 76 80 80 88 88 88 88 88 88 88 92 88 80 80 88 88 80 80 80 80 88 88 88 92 92 92 88 88 88 88 88 88
88 88 88 88 88 88 88 88 88 88 88 88 88 88 80 80 80 80 80 80 80 80 80 80 76 64 48 36 24 20 20 20 20 12 8 0 0 8 0 0 0 0 0 0 0 0 0 0 0 0 0 0 0 0 0 0 0 0 0 0 0 0 20 44 64 68 68 68 76 68 76 76 80 80 80 88 88 80 80 80 80 76 80 80 80 80 80 80 80 80 80 88 88 88 88 88 92 92 92 88 88 88 88
88 88 88 88 88 88 88 88 88 88 88 88 88 88 80 80 80 80 80 80 80 80 80 64 48 48 44 24 20 20 24 24 20 12 0 0 8 8 0 0 0 0 0 0 0 0 0 0 0 0 0 0 0 0 0 0 0 0 0 0 0 0 8 36 68 68 68 68 68 76 76 76 80 80 80 80 80 80 80 80 76 76 80 80 80 80 80 80 80 80 88 88 88 88 88 88 88 88 92 92 88 88 88
88 88 88 88 88 88 88 88 88 88 88 88 88 88 80 80 80 80 80 80 88 80 76 68 56 44 32 20 12 20 24 24 20 8 0 8 8 8 0 0 0 0 0 0 0 0 0 0 0 0 0 0 0 0 0 0 0 0 0 0 0 0 8 32 64 76 68 68 76 76 76 76 76 80 80 80 80 80 80 80 80 80 80 80 80 88 88 88 88 88 88 88 88 88 88 88 88 88 88 88 80 76 80